Вернуться в каталог

CHECKMATE 8

АктивенВоенныеPO
NORAD 56162·PAYLOAD·🇺🇸 United States

Запущен Apr 2, 2023 с Vandenberg Space Force Base

Loading…

Ближайшие Пролёты (ближайшие 24 часа)

TLE

СвежийSource: Space-Track

Эпоха: Sep 14, 2026, 05:34 UTC

1 56162U 23050A   26257.23206502  .00000101  00000-0  79757-4 0  9993
2 56162  81.0058 346.3643 0007488  85.4787 274.7224 13.84970571174475

Отслеживайте CHECKMATE 8 в реальном времени с AllMySat

Download on the App Store